Regional Weather Roundup
Issued by NWS

Home | Current Version | Previous Version | Text Only | Print | Product List | Glossary On
Versions: 1 2 3 4 5 6 7 8 9 10 11 12 13 14 15 16 17 18 19 20 21 22 23 24 25 26 27 28 29 30 31 32 33 34 35 36 37 38 39 40 41 42 43 44 45 46 47 48 49 50
000
ASUS45 KREV 291810
RWRNV
NEVADA REGIONAL WEATHER ROUNDUP
NATIONAL WEATHER SERVICE RENO NV
1100 AM PDT WED JUL 29 2015

NOTE: "FAIR" INDICATES FEW OR NO CLOUDS BELOW 12,000 FEET WITH NO
SIGNIFICANT WEATHER AND/OR OBSTRUCTIONS TO VISIBILITY.

NVZ001-003-004-291900-
WESTERN NEVADA

CITY           SKY/WX    TMP DP  RH WIND       PRES   REMARKS
RENO           SUNNY     82  23  11 VRB3      30.23F
6HR MIN TEMP:  58; 6HR MAX TEMP:  82;

CARSON CITY    FAIR      81  18   9 NE5       30.26S
MINDEN         FAIR      75  27  16 CALM      30.25F
SLIDE MTN        N/A     61  32  33 SE5         N/A
PYRAMID LAKE     N/A     77 N/A N/A E6          N/A
FALLON         SUNNY     79  21  11 NW6       30.22F
6HR MIN TEMP:  48; 6HR MAX TEMP:  79;

LOVELOCK       SUNNY     81  23  11 CALM      30.22S
6HR MIN TEMP:  59; 6HR MAX TEMP:  81;

HAWTHORNE      SUNNY     79  19  11 W6        30.24F
$$

NVZ002-CAZ072-073-291900-
NORTHERN AND CENTRAL SIERRA

CITY           SKY/WX    TMP DP  RH WIND       PRES   REMARKS
S. LAKE TAHOE  SUNNY     78  30  17 VRB7      30.32S
6HR MIN TEMP:  41; 6HR MAX TEMP:  78;

TRUCKEE        SUNNY     73  30  20 N6        30.31F
SQUAW VLY 8000   N/A     68  28  22 SE3         N/A
SUSANVILLE     SUNNY     79  23  12 NE7       30.24S
BLUE CANYON    SUNNY     81  31  16 S8        30.25R
MAMMOTH LAKES  FAIR      75  25  15 E7        30.39R
BRIDGEPORT     FAIR      78  27  15 VRB5      30.33F
$$

NVZ030-031-036-291900-
NORTHERN NEVADA

CITY           SKY/WX    TMP DP  RH WIND       PRES   REMARKS
ELKO           SUNNY     77  24  14 CALM      30.30S
6HR MIN TEMP:  43; 6HR MAX TEMP:  77;

WINNEMUCCA     SUNNY     79  25  13 E7        30.25F
6HR MIN TEMP:  46; 6HR MAX TEMP:  79;

WENDOVER       SUNNY     75  30  19 E8        30.32S
$$

NVZ035-037-291900-
CENTRAL NEVADA

CITY           SKY/WX    TMP DP  RH WIND       PRES   REMARKS
ELY            SUNNY     74  24  15 VRB3      30.37S
6HR MIN TEMP:  39; 6HR MAX TEMP:  74;

EUREKA           N/A     78  23  13 VRB6      30.32F
6HR MIN TEMP:  41; 6HR MAX TEMP:  79;

$$

NVZ013-014-291900-
SOUTH CENTRAL NEVADA

CITY           SKY/WX    TMP DP  RH WIND       PRES   REMARKS
TONOPAH        SUNNY     83  20   9 VRB6      30.28F
6HR MIN TEMP:  59; 6HR MAX TEMP:  83;

$$

NVZ017-020-022-291900-
SOUTHERN NEVADA

CITY           SKY/WX    TMP DP  RH WIND       PRES   REMARKS
LAS VEGAS      MOSUNNY   96  29   9 E8        30.00S
6HR MIN TEMP:  80; 6HR MAX TEMP:  96;

N. LAS VEGAS   SUNNY     96  30   9 SE12      30.03S
6HR MIN TEMP:  76; 6HR MAX TEMP:  97;

NELLIS AFB     SUNNY     97  27   8 E10G18    30.00S
6HR MIN TEMP:  78; 6HR MAX TEMP:  97;

HENDERSON      SUNNY     94  34  12 VRB3      30.08S
6HR MIN TEMP:  75; 6HR MAX TEMP:  95;

MERCURY        SUNNY     95  25   8 VRB3      30.10S
6HR MIN TEMP:  66; 6HR MAX TEMP:  96;

$$


USA.gov is the U.S. government's official web portal to all federal, state and local government web resources and services.